,,,PA_Meas_PMT16A,,PR_Meas_QMR101_102,,RH_Meas_QMH101,,SR_Meas_QMS101,,TA_Meas_QMH101,,GenWind,,GenWind,
date,time,status,PA,status,PR,status,RH,status,SR,status,TA,status,DirAvg,status,SpdAvg,
2012-08-02, 00:00:04,VALID,1001.45,VALID,0,VALID,75.6553,VALID,0,VALID,25.204,VALID,142,VALID,1.78477,
2012-08-02, 00:01:04,VALID,1001.43,VALID,0,VALID,75.7163,VALID,0,VALID,25.1845,VALID,134,VALID,1.62109,
2012-08-02, 00:02:04,VALID,1001.43,VALID,0,VALID,75.9681,VALID,0,VALID,25.1455,VALID,148,VALID,1.43242,
2012-08-02, 00:03:04,VALID,1001.44,VALID,0,VALID,76.0826,VALID,0,VALID,25.1045,VALID,126,VALID,1.47148,
2012-08-02, 00:04:04,VALID,1001.41,VALID,0,VALID,76.4946,VALID,0,VALID,25.0674,VALID,153,VALID,1.08125,
2012-08-02, 00:05:04,VALID,1001.46,VALID,0,VALID,76.5251,VALID,0,VALID,25.0479,VALID,146,VALID,2.05742,
2012-08-02, 00:06:04,VALID,1001.44,VALID,0,VALID,76.6395,VALID,0,VALID,25.0284,VALID,149,VALID,2.15,
2012-08-02, 00:07:04,VALID,1001.41,VALID,0,VALID,76.4564,VALID,0,VALID,25.0284,VALID,136,VALID,1.84766,
2012-08-02, 00:08:04,VALID,1001.4,VALID,0,VALID,76.6472,VALID,0,VALID,25.0088,VALID,118,VALID,1.82344,
2012-08-02, 00:09:04,VALID,1001.36,VALID,0,VALID,76.5938,VALID,0,VALID,24.9698,VALID,133,VALID,1.40391,
2012-08-02, 00:10:04,VALID,1001.34,VALID,0,VALID,76.1436,VALID,0,VALID,24.9893,VALID,136,VALID,1.86367,
2012-08-02, 00:11:04,VALID,1001.36,VALID,0,VALID,75.724,VALID,0,VALID,25.1064,VALID,157,VALID,2.28398,
2012-08-02, 00:12:04,VALID,1001.34,VALID,0,VALID,74.8542,VALID,0,VALID,25.1845,VALID,146,VALID,1.9832,
2012-08-02, 00:13:04,VALID,1001.37,VALID,0,VALID,75.4798,VALID,0,VALID,25.1845,VALID,129,VALID,1.54023,
2012-08-02, 00:14:04,VALID,1001.38,VALID,0,VALID,75.6858,VALID,0,VALID,25.1455,VALID,135,VALID,1.44258,
2012-08-02, 00:15:04,VALID,1001.32,VALID,0,VALID,74.9687,VALID,0,VALID,25.1064,VALID,144,VALID,1.63008,
2012-08-02, 00:16:04,VALID,1001.3,VALID,0,VALID,73.1757,VALID,0,VALID,25.2626,VALID,148,VALID,3.13711,
2012-08-02, 00:17:04,VALID,1001.31,VALID,0,VALID,72.4661,VALID,0,VALID,25.3993,VALID,160,VALID,2.52422,
2012-08-02, 00:18:04,VALID,1001.31,VALID,0,VALID,69.4906,VALID,0,VALID,25.6511,VALID,162,VALID,4.06953,
2012-08-02, 00:19:04,VALID,1001.29,VALID,0,VALID,69.9712,VALID,0,VALID,25.7312,VALID,139,VALID,3.17227,
2012-08-02, 00:20:04,VALID,1001.34,VALID,0,VALID,69.132,VALID,0,VALID,25.8483,VALID,145,VALID,2.98672,
2012-08-02, 00:21:04,VALID,1001.32,VALID,0,VALID,67.8578,VALID,0,VALID,26.0045,VALID,169,VALID,2.9707,
2012-08-02, 00:22:04,VALID,1001.31,VALID,0,VALID,66.4464,VALID,0,VALID,26.1803,VALID,178,VALID,2.74961,
2012-08-02, 00:23:04,VALID,1001.3,VALID,0,VALID,66.0878,VALID,0,VALID,26.2389,VALID,167,VALID,3.35078,
2012-08-02, 00:24:04,VALID,1001.3,VALID,0,VALID,65.8589,VALID,0,VALID,26.317,VALID,161,VALID,3.00859,
2012-08-02, 00:25:04,VALID,1001.33,VALID,0,VALID,64.9662,VALID,0,VALID,26.4341,VALID,174,VALID,4.75898,
2012-08-02, 00:26:04,VALID,1001.32,VALID,0,VALID,65.1722,VALID,0,VALID,26.4321,VALID,154,VALID,2.86758,
2012-08-02, 00:27:04,VALID,1001.25,VALID,0,VALID,64.1422,VALID,0,VALID,26.4341,VALID,152,VALID,3.53672,
2012-08-02, 00:28:04,VALID,1001.3,VALID,0,VALID,63.7455,VALID,0,VALID,26.5708,VALID,177,VALID,5.55859,
2012-08-02, 00:29:04,VALID,1001.29,VALID,0,VALID,63.7684,VALID,0,VALID,26.6294,VALID,172,VALID,4.26328,
2012-08-02, 00:30:04,VALID,1001.31,VALID,0,VALID,63.3335,VALID,0,VALID,26.688,VALID,164,VALID,4.07695,
2012-08-02, 00:31:04,VALID,1001.28,VALID,0,VALID,63.158,VALID,0,VALID,26.688,VALID,174,VALID,5.35508,
2012-08-02, 00:32:04,VALID,1001.3,VALID,0,VALID,62.7689,VALID,0,VALID,26.7857,VALID,178,VALID,4.55547,
2012-08-02, 00:33:04,VALID,1001.25,VALID,0,VALID,62.7384,VALID,0,VALID,26.8052,VALID,170,VALID,4.61914,
2012-08-02, 00:34:04,VALID,1001.23,VALID,0,VALID,62.3721,VALID,0,VALID,26.8247,VALID,174,VALID,4.69609,
2012-08-02, 00:35:04,VALID,1001.22,VALID,0,VALID,62.5553,VALID,0,VALID,26.8422,VALID,169,VALID,3.95625,
2012-08-02, 00:36:04,VALID,1001.2,VALID,0,VALID,62.4027,VALID,0,VALID,26.8422,VALID,172,VALID,3.58164,
2012-08-02, 00:37:04,VALID,1001.18,VALID,0,VALID,63.1275,VALID,0,VALID,26.7857,VALID,163,VALID,2.85625,
2012-08-02, 00:38:04,VALID,1001.18,VALID,0,VALID,62.6468,VALID,0,VALID,26.7661,VALID,176,VALID,3.04922,
2012-08-02, 00:39:04,VALID,1001.17,VALID,0,VALID,62.54,VALID,0,VALID,26.7641,VALID,170,VALID,4.05,
2012-08-02, 00:40:04,VALID,1001.14,VALID,0,VALID,62.4332,VALID,0,VALID,26.7857,VALID,181,VALID,3.14609,
2012-08-02, 00:41:04,VALID,1001.13,VALID,0,VALID,62.1967,VALID,0,VALID,26.8247,VALID,174,VALID,3.76719,
2012-08-02, 00:42:04,VALID,1001.11,VALID,0,VALID,61.6244,VALID,0,VALID,26.8247,VALID,169,VALID,5.61992,
2012-08-02, 00:43:04,VALID,1001.11,VALID,0,VALID,62.0288,VALID,0,VALID,26.8247,VALID,170,VALID,4.7125,
2012-08-02, 00:44:04,VALID,1001.08,VALID,0,VALID,61.8228,VALID,0,VALID,26.8247,VALID,174,VALID,3.96289,
2012-08-02, 00:45:04,VALID,1001.08,VALID,0,VALID,61.7847,VALID,0,VALID,26.8443,VALID,173,VALID,5.57031,
2012-08-02, 00:46:04,VALID,1001.02,VALID,0,VALID,61.2353,VALID,0,VALID,26.8833,VALID,166,VALID,6.61445,
2012-08-02, 00:47:04,VALID,1001.05,VALID,0,VALID,61.571,VALID,0,VALID,26.8833,VALID,165,VALID,4.69258,
2012-08-02, 00:48:04,VALID,1001.05,VALID,0,VALID,61.7313,VALID,0,VALID,26.8227,VALID,172,VALID,3.57578,
2012-08-02, 00:49:04,VALID,1001,VALID,0,VALID,61.777,VALID,0,VALID,26.7857,VALID,175,VALID,3.11602,
2012-08-02, 00:50:04,VALID,1000.96,VALID,0,VALID,61.6397,VALID,0,VALID,26.7857,VALID,177,VALID,4.77227,
2012-08-02, 00:51:04,VALID,1000.89,VALID,0,VALID,60.686,VALID,0,VALID,26.8227,VALID,172,VALID,5.22813,
2012-08-02, 00:52:04,VALID,1000.93,VALID,0,VALID,60.8844,VALID,0,VALID,26.8813,VALID,168,VALID,5.64336,
2012-08-02, 00:53:04,VALID,1000.89,VALID,0,VALID,61.098,VALID,0,VALID,26.8422,VALID,164,VALID,4.33672,
2012-08-02, 00:54:04,VALID,1000.81,VALID,0,VALID,61.1819,VALID,0,VALID,26.8227,VALID,152,VALID,5.94219,
2012-08-02, 00:55:04,VALID,1000.91,VALID,0,VALID,61.0675,VALID,0,VALID,26.8443,VALID,188,VALID,4.64102,
2012-08-02, 00:56:04,VALID,1000.91,VALID,0,VALID,60.9607,VALID,0,VALID,26.8638,VALID,182,VALID,3.73633,
2012-08-02, 00:57:04,VALID,1000.87,VALID,0,VALID,60.8691,VALID,0,VALID,26.8638,VALID,178,VALID,4.14766,
2012-08-02, 00:58:04,VALID,1000.87,VALID,0,VALID,60.7928,VALID,0,VALID,26.8443,VALID,168,VALID,4.49453,
2012-08-02, 00:59:04,VALID,1000.87,VALID,0,VALID,61.3345,VALID,0,VALID,26.8443,VALID,175,VALID,3.63906,
2012-08-02, 01:00:04,VALID,1000.86,VALID,0,VALID,60.4266,VALID,0,VALID,26.8032,VALID,178,VALID,7.7457,
2012-08-02, 01:01:04,VALID,1000.8,VALID,0,VALID,59.8925,VALID,0,VALID,26.9419,VALID,199,VALID,5.47422,
2012-08-02, 01:02:04,VALID,1000.83,VALID,0,VALID,60.2435,VALID,0,VALID,26.9615,VALID,173,VALID,4.81641,
2012-08-02, 01:03:04,VALID,1000.83,VALID,0,VALID,60.4113,VALID,0,VALID,26.9008,VALID,175,VALID,4.10938,
2012-08-02, 01:04:04,VALID,1000.81,VALID,0,VALID,60.6402,VALID,0,VALID,26.8813,VALID,190,VALID,4.33672,
2012-08-02, 01:05:04,VALID,1000.78,VALID,0,VALID,60.831,VALID,0,VALID,26.8618,VALID,169,VALID,5.21602,
2012-08-02, 01:06:04,VALID,1000.75,VALID,0,VALID,61.1056,VALID,0,VALID,26.8032,VALID,172,VALID,3.91172,
2012-08-02, 01:07:04,VALID,1000.83,VALID,0,VALID,60.8462,VALID,0,VALID,26.8247,VALID,174,VALID,6.77539,
2012-08-02, 01:08:04,VALID,1000.84,VALID,0,VALID,60.4571,VALID,0,VALID,26.8638,VALID,180,VALID,5.98477,
2012-08-02, 01:09:04,VALID,1000.76,VALID,0,VALID,59.9383,VALID,0,VALID,26.9029,VALID,182,VALID,5.87539,
2012-08-02, 01:10:04,VALID,1000.84,VALID,0,VALID,60.2359,VALID,0,VALID,26.8813,VALID,169,VALID,6.12734,
2012-08-02, 01:11:04,VALID,1000.85,VALID,0,VALID,60.4571,VALID,0,VALID,26.8422,VALID,177,VALID,4.75195,
2012-08-02, 01:12:04,VALID,1000.85,VALID,0,VALID,60.9454,VALID,0,VALID,26.8052,VALID,167,VALID,5.25938,
2012-08-02, 01:13:04,VALID,1000.83,VALID,0,VALID,60.4724,VALID,0,VALID,26.7836,VALID,172,VALID,6.32227,
2012-08-02, 01:14:04,VALID,1000.89,VALID,0,VALID,60.4571,VALID,0,VALID,26.8443,VALID,187,VALID,4.49336,
2012-08-02, 01:15:04,VALID,1000.87,VALID,0,VALID,60.2282,VALID,0,VALID,26.8618,VALID,182,VALID,4.48203,
2012-08-02, 01:16:04,VALID,1000.86,VALID,0,VALID,60.3579,VALID,0,VALID,26.8833,VALID,177,VALID,5.11719,
2012-08-02, 01:17:04,VALID,1000.82,VALID,0,VALID,59.717,VALID,0,VALID,26.8813,VALID,165,VALID,4.80391,
2012-08-02, 01:18:04,VALID,1000.89,VALID,0,VALID,60.2359,VALID,0,VALID,26.8813,VALID,167,VALID,4.6668,
2012-08-02, 01:19:04,VALID,1000.86,VALID,0,VALID,60.1061,VALID,0,VALID,26.8618,VALID,178,VALID,4.50703,
2012-08-02, 01:20:04,VALID,1000.75,VALID,0,VALID,59.801,VALID,0,VALID,26.9008,VALID,161,VALID,7.625,
2012-08-02, 01:21:04,VALID,1000.81,VALID,0,VALID,60.1977,VALID,0,VALID,26.8618,VALID,168,VALID,5.61016,
2012-08-02, 01:22:04,VALID,1000.78,VALID,0,VALID,60.068,VALID,0,VALID,26.8618,VALID,177,VALID,6.72305,
2012-08-02, 01:23:04,VALID,1000.85,VALID,0,VALID,60.2282,VALID,0,VALID,26.8422,VALID,187,VALID,4.0875,
2012-08-02, 01:24:04,VALID,1000.76,VALID,0,VALID,59.8391,VALID,0,VALID,26.8618,VALID,163,VALID,5.97188,
2012-08-02, 01:25:04,VALID,1000.76,VALID,0,VALID,59.717,VALID,0,VALID,26.8618,VALID,173,VALID,5.29531,
2012-08-02, 01:26:04,VALID,1000.81,VALID,0,VALID,60.1214,VALID,0,VALID,26.8618,VALID,161,VALID,4.22031,
2012-08-02, 01:27:04,VALID,1000.76,VALID,0,VALID,59.656,VALID,0,VALID,26.8402,VALID,185,VALID,5.13945,
2012-08-02, 01:28:04,VALID,1000.73,VALID,0,VALID,59.5187,VALID,0,VALID,26.9008,VALID,165,VALID,5.34961,
2012-08-02, 01:29:04,VALID,1000.74,VALID,0,VALID,59.2669,VALID,0,VALID,26.9008,VALID,169,VALID,5.85625,
2012-08-02, 01:30:04,VALID,1000.67,VALID,0,VALID,59.2059,VALID,0,VALID,26.9399,VALID,166,VALID,5.69688,
2012-08-02, 01:31:04,VALID,1000.67,VALID,0,VALID,59.1906,VALID,0,VALID,26.9204,VALID,176,VALID,4.30937,
2012-08-02, 01:32:04,VALID,1000.65,VALID,0,VALID,59.2287,VALID,0,VALID,26.9008,VALID,176,VALID,5.02344,
2012-08-02, 01:33:04,VALID,1000.64,VALID,0,VALID,59.6102,VALID,0,VALID,26.9008,VALID,176,VALID,5.76055,
2012-08-02, 01:34:04,VALID,1000.68,VALID,0,VALID,59.305,VALID,0,VALID,26.9615,VALID,181,VALID,6.56016,
2012-08-02, 01:35:04,VALID,1000.6,VALID,0,VALID,59.1677,VALID,0,VALID,26.9399,VALID,158,VALID,6.7668,
2012-08-02, 01:36:04,VALID,1000.69,VALID,0,VALID,59.5873,VALID,0,VALID,26.9204,VALID,169,VALID,4.90117,
2012-08-02, 01:37:04,VALID,1000.66,VALID,0,VALID,59.7399,VALID,0,VALID,26.8618,VALID,171,VALID,4.95898,
2012-08-02, 01:38:04,VALID,1000.62,VALID,0,VALID,59.4729,VALID,0,VALID,26.9029,VALID,169,VALID,6.66602,
2012-08-02, 01:39:04,VALID,1000.64,VALID,0,VALID,59.5416,VALID,0,VALID,26.9224,VALID,182,VALID,4.31445,
2012-08-02, 01:40:04,VALID,1000.59,VALID,0,VALID,59.717,VALID,0,VALID,26.8833,VALID,178,VALID,4.06211,
2012-08-02, 01:41:04,VALID,1000.61,VALID,0,VALID,60.1977,VALID,0,VALID,26.8227,VALID,178,VALID,7.42695,
2012-08-02, 01:42:04,VALID,1000.66,VALID,0,VALID,59.7247,VALID,0,VALID,26.8833,VALID,188,VALID,5.25234,
2012-08-02, 01:43:04,VALID,1000.63,VALID,0,VALID,59.7552,VALID,0,VALID,26.8813,VALID,195,VALID,4.66563,
2012-08-02, 01:44:04,VALID,1000.52,VALID,0,VALID,59.9536,VALID,0,VALID,26.8638,VALID,170,VALID,7.43008,
2012-08-02, 01:45:04,VALID,1000.66,VALID,0,VALID,60.1977,VALID,0,VALID,26.8032,VALID,167,VALID,8.35195,
2012-08-02, 01:46:04,VALID,1000.64,VALID,0,VALID,59.9383,VALID,0,VALID,26.8227,VALID,179,VALID,5.08398,
2012-08-02, 01:47:04,VALID,1000.58,VALID,0,VALID,60.3045,VALID,0,VALID,26.8247,VALID,164,VALID,6.3832,
2012-08-02, 01:48:04,VALID,1000.56,VALID,0,VALID,59.9688,VALID,0,VALID,26.7836,VALID,192,VALID,4.66367,
2012-08-02, 01:49:04,VALID,1000.56,VALID,0,VALID,60.0451,VALID,0,VALID,26.8422,VALID,185,VALID,5.29141,
2012-08-02, 01:50:04,VALID,1000.57,VALID,0,VALID,60.068,VALID,0,VALID,26.8422,VALID,170,VALID,6.18945,
2012-08-02, 01:51:04,VALID,1000.49,VALID,0,VALID,59.6484,VALID,0,VALID,26.8422,VALID,173,VALID,6.46211,
2012-08-02, 01:52:04,VALID,1000.57,VALID,0,VALID,59.9383,VALID,0,VALID,26.8638,VALID,165,VALID,5.15156,
2012-08-02, 01:53:04,VALID,1000.58,VALID,0,VALID,59.9536,VALID,0,VALID,26.8032,VALID,176,VALID,5.96055,
2012-08-02, 01:54:04,VALID,1000.53,VALID,0,VALID,59.9383,VALID,0,VALID,26.8052,VALID,190,VALID,4.59531,
2012-08-02, 01:55:04,VALID,1000.61,VALID,0,VALID,59.9841,VALID,0,VALID,26.8247,VALID,174,VALID,6.76602,
2012-08-02, 01:56:04,VALID,1000.51,VALID,0,VALID,59.9612,VALID,0,VALID,26.8032,VALID,170,VALID,5.94297,
2012-08-02, 01:57:04,VALID,1000.51,VALID,0,VALID,60.0909,VALID,0,VALID,26.7836,VALID,183,VALID,5.49961,
2012-08-02, 01:58:04,VALID,1000.48,VALID,0,VALID,60.419,VALID,0,VALID,26.7857,VALID,175,VALID,6.03203,
2012-08-02, 01:59:04,VALID,1000.56,VALID,0,VALID,60.625,VALID,0,VALID,26.7661,VALID,171,VALID,8.2957,
2012-08-02, 02:00:04,VALID,1000.56,VALID,0,VALID,60.6784,VALID,0,VALID,26.7271,VALID,178,VALID,4.77305,
2012-08-02, 02:01:04,VALID,1000.53,VALID,0,VALID,60.541,VALID,0,VALID,26.7076,VALID,190,VALID,3.85039,
2012-08-02, 02:02:04,VALID,1000.57,VALID,0,VALID,61.0446,VALID,0,VALID,26.6685,VALID,169,VALID,4.76641,
2012-08-02, 02:03:04,VALID,1000.47,VALID,0,VALID,60.6707,VALID,0,VALID,26.6685,VALID,182,VALID,7.05547,
2012-08-02, 02:04:04,VALID,1000.56,VALID,0,VALID,60.3274,VALID,0,VALID,26.7661,VALID,183,VALID,6.7543,
2012-08-02, 02:05:04,VALID,1000.53,VALID,0,VALID,60.2816,VALID,0,VALID,26.7661,VALID,185,VALID,4.97344,
2012-08-02, 02:06:04,VALID,1000.46,VALID,0,VALID,60.2435,VALID,0,VALID,26.7251,VALID,174,VALID,5.60273,
2012-08-02, 02:07:04,VALID,1000.46,VALID,0,VALID,59.8849,VALID,0,VALID,26.7641,VALID,176,VALID,7.88594,
2012-08-02, 02:08:04,VALID,1000.47,VALID,0,VALID,59.9001,VALID,0,VALID,26.8032,VALID,181,VALID,6.53516,
2012-08-02, 02:09:04,VALID,1000.52,VALID,0,VALID,59.7247,VALID,0,VALID,26.8227,VALID,191,VALID,5.3875,
2012-08-02, 02:10:04,VALID,1000.46,VALID,0,VALID,59.8773,VALID,0,VALID,26.8247,VALID,177,VALID,4.93594,
2012-08-02, 02:11:04,VALID,1000.47,VALID,0,VALID,60.3274,VALID,0,VALID,26.7836,VALID,184,VALID,5.6918,
2012-08-02, 02:12:04,VALID,1000.47,VALID,0,VALID,60.3961,VALID,0,VALID,26.7661,VALID,174,VALID,6.52969,
2012-08-02, 02:13:04,VALID,1000.4,VALID,0,VALID,60.2282,VALID,0,VALID,26.7446,VALID,186,VALID,4.24062,
2012-08-02, 02:14:04,VALID,1000.4,VALID,0,VALID,60.4037,VALID,0,VALID,26.7466,VALID,171,VALID,6.63477,
2012-08-02, 02:15:04,VALID,1000.42,VALID,0,VALID,60.625,VALID,0,VALID,26.7271,VALID,178,VALID,5.17148,
2012-08-02, 02:16:04,VALID,1000.41,VALID,0,VALID,60.2969,VALID,0,VALID,26.7271,VALID,165,VALID,5.33828,
2012-08-02, 02:17:04,VALID,1000.41,VALID,0,VALID,60.2206,VALID,0,VALID,26.7271,VALID,182,VALID,4.31953,
2012-08-02, 02:18:04,VALID,1000.41,VALID,0,VALID,60.213,VALID,0,VALID,26.7271,VALID,178,VALID,5.38281,
2012-08-02, 02:19:04,VALID,1000.38,VALID,0,VALID,60.1748,VALID,0,VALID,26.686,VALID,174,VALID,5.78438,
2012-08-02, 02:20:04,VALID,1000.42,VALID,0,VALID,60.2359,VALID,0,VALID,26.7271,VALID,173,VALID,5.3793,
2012-08-02, 02:21:04,VALID,1000.41,VALID,0,VALID,60.2435,VALID,0,VALID,26.7251,VALID,173,VALID,5.35,
2012-08-02, 02:22:04,VALID,1000.39,VALID,0,VALID,60.068,VALID,0,VALID,26.7055,VALID,186,VALID,6.69258,
2012-08-02, 02:23:04,VALID,1000.44,VALID,0,VALID,60.5563,VALID,0,VALID,26.7446,VALID,173,VALID,5.63047,
2012-08-02, 02:24:04,VALID,1000.4,VALID,0,VALID,60.2816,VALID,0,VALID,26.7251,VALID,176,VALID,4.25977,
2012-08-02, 02:25:04,VALID,1000.44,VALID,0,VALID,60.4113,VALID,0,VALID,26.7055,VALID,175,VALID,5.14258,
2012-08-02, 02:26:04,VALID,1000.41,VALID,0,VALID,60.2359,VALID,0,VALID,26.686,VALID,172,VALID,5.48008,
2012-08-02, 02:27:04,VALID,1000.44,VALID,0,VALID,60.6326,VALID,0,VALID,26.686,VALID,169,VALID,5.48984,
2012-08-02, 02:28:04,VALID,1000.5,VALID,0,VALID,60.8767,VALID,0.104696,VALID,26.6469,VALID,173,VALID,5.20508,
2012-08-02, 02:29:04,VALID,1000.51,VALID,0,VALID,60.8081,VALID,0,VALID,26.6469,VALID,176,VALID,5.13711,
2012-08-02, 02:30:04,VALID,1000.47,VALID,0,VALID,60.8004,VALID,0,VALID,26.6449,VALID,188,VALID,5.09102,
2012-08-02, 02:31:04,VALID,1000.51,VALID,0,VALID,60.5639,VALID,0,VALID,26.6665,VALID,172,VALID,5.76836,
2012-08-02, 02:32:04,VALID,1000.52,VALID,0,VALID,60.6784,VALID,0,VALID,26.7055,VALID,175,VALID,5.2582,
2012-08-02, 02:33:04,VALID,1000.48,VALID,0,VALID,60.3121,VALID,0,VALID,26.684,VALID,172,VALID,5.72695,
2012-08-02, 02:34:04,VALID,1000.5,VALID,0,VALID,60.9378,VALID,0,VALID,26.6644,VALID,169,VALID,4.0207,
2012-08-02, 02:35:04,VALID,1000.4,VALID,0,VALID,60.6784,VALID,0,VALID,26.6254,VALID,163,VALID,6.04648,
2012-08-02, 02:36:04,VALID,1000.43,VALID,0,VALID,60.4571,VALID,0.104696,VALID,26.6644,VALID,172,VALID,6.25859,
2012-08-02, 02:37:04,VALID,1000.45,VALID,0,VALID,60.6707,VALID,0.104696,VALID,26.6644,VALID,175,VALID,4.75195,
2012-08-02, 02:38:04,VALID,1000.46,VALID,0,VALID,60.4342,VALID,0,VALID,26.6449,VALID,199,VALID,4.82852,
2012-08-02, 02:39:04,VALID,1000.41,VALID,0,VALID,60.8462,VALID,0,VALID,26.686,VALID,176,VALID,5.65273,
2012-08-02, 02:40:04,VALID,1000.42,VALID,0,VALID,60.5563,VALID,0.104696,VALID,26.6449,VALID,171,VALID,6.18437,
2012-08-02, 02:41:04,VALID,1000.41,VALID,0,VALID,60.747,VALID,0.104696,VALID,26.6449,VALID,173,VALID,5.87109,
2012-08-02, 02:42:04,VALID,1000.34,VALID,0,VALID,60.1596,VALID,0,VALID,26.6449,VALID,192,VALID,5.68828,
2012-08-02, 02:43:04,VALID,1000.4,VALID,0,VALID,60.3579,VALID,0,VALID,26.7055,VALID,168,VALID,5.26875,
2012-08-02, 02:44:04,VALID,1000.41,VALID,0,VALID,60.2053,VALID,0,VALID,26.6665,VALID,176,VALID,3.8707,
2012-08-02, 02:45:04,VALID,1000.4,VALID,0,VALID,60.48,VALID,0,VALID,26.686,VALID,169,VALID,4.27734,
2012-08-02, 02:46:04,VALID,1000.4,VALID,0,VALID,60.4571,VALID,0,VALID,26.6254,VALID,175,VALID,3.63906,
2012-08-02, 02:47:04,VALID,1000.33,VALID,0,VALID,59.4118,VALID,0,VALID,26.7055,VALID,172,VALID,7.26406,
2012-08-02, 02:48:04,VALID,1000.35,VALID,0,VALID,59.2669,VALID,0,VALID,26.7641,VALID,179,VALID,5.77148,
2012-08-02, 02:49:04,VALID,1000.4,VALID,0,VALID,59.6713,VALID,0,VALID,26.7621,VALID,163,VALID,5.23828,
2012-08-02, 02:50:04,VALID,1000.35,VALID,0,VALID,59.1143,VALID,0,VALID,26.7641,VALID,165,VALID,6.39414,
2012-08-02, 02:51:04,VALID,1000.36,VALID,0,VALID,59.1677,VALID,0,VALID,26.7641,VALID,187,VALID,4.57695,
2012-08-02, 02:52:04,VALID,1000.28,VALID,0,VALID,58.7328,VALID,0.104696,VALID,26.7446,VALID,178,VALID,7.50625,
2012-08-02, 02:53:04,VALID,1000.34,VALID,0,VALID,58.4276,VALID,0,VALID,26.8402,VALID,171,VALID,6.54258,
2012-08-02, 02:54:04,VALID,1000.39,VALID,0,VALID,58.4276,VALID,0,VALID,26.8813,VALID,174,VALID,5.99609,
2012-08-02, 02:55:04,VALID,1000.39,VALID,0,VALID,58.8778,VALID,0,VALID,26.8207,VALID,173,VALID,5.85313,
2012-08-02, 02:56:04,VALID,1000.38,VALID,0,VALID,59.0685,VALID,0,VALID,26.7426,VALID,169,VALID,5.46406,
2012-08-02, 02:57:04,VALID,1000.39,VALID,0,VALID,59.1524,VALID,0.104696,VALID,26.723,VALID,171,VALID,5.3375,
2012-08-02, 02:58:04,VALID,1000.43,VALID,0,VALID,59.3737,VALID,0,VALID,26.684,VALID,169,VALID,5.09727,
2012-08-02, 02:59:04,VALID,1000.42,VALID,0,VALID,59.3813,VALID,0.104696,VALID,26.684,VALID,179,VALID,4.59648,
2012-08-02, 03:00:04,VALID,1000.35,VALID,0,VALID,58.5192,VALID,0,VALID,26.7836,VALID,164,VALID,5.91445,
2012-08-02, 03:01:04,VALID,1000.41,VALID,0,VALID,58.5879,VALID,0,VALID,26.8011,VALID,164,VALID,5.61328,
2012-08-02, 03:02:04,VALID,1000.44,VALID,0,VALID,58.8625,VALID,0.104696,VALID,26.8207,VALID,173,VALID,3.62266,
2012-08-02, 03:03:04,VALID,1000.38,VALID,0,VALID,58.6947,VALID,0.104696,VALID,26.8011,VALID,173,VALID,4.07109,
2012-08-02, 03:04:04,VALID,1000.38,VALID,0,VALID,59.1067,VALID,0.104696,VALID,26.7816,VALID,181,VALID,3.50391,
2012-08-02, 03:05:04,VALID,1000.35,VALID,0,VALID,59.4195,VALID,0,VALID,26.7426,VALID,182,VALID,3.3793,
2012-08-02, 03:06:04,VALID,1000.3,VALID,0,VALID,58.8473,VALID,0,VALID,26.7446,VALID,182,VALID,4.45742,
2012-08-02, 03:07:04,VALID,1000.3,VALID,0,VALID,59.038,VALID,0,VALID,26.7055,VALID,170,VALID,6.06836,
2012-08-02, 03:08:04,VALID,1000.3,VALID,0,VALID,59.1296,VALID,0,VALID,26.7076,VALID,179,VALID,6.03164,
2012-08-02, 03:09:04,VALID,1000.32,VALID,0,VALID,59.7933,VALID,0,VALID,26.5688,VALID,160,VALID,2.9125,
2012-08-02, 03:10:04,VALID,1000.3,VALID,0,VALID,59.4347,VALID,0,VALID,26.6099,VALID,175,VALID,4.68711,
2012-08-02, 03:11:04,VALID,1000.33,VALID,0,VALID,59.3279,VALID,0,VALID,26.6469,VALID,169,VALID,4.2082,
2012-08-02, 03:12:04,VALID,1000.33,VALID,0,VALID,59.595,VALID,0,VALID,26.6274,VALID,171,VALID,3.975,
2012-08-02, 03:13:04,VALID,1000.31,VALID,0,VALID,59.5644,VALID,0,VALID,26.6294,VALID,186,VALID,4.4043,
2012-08-02, 03:14:04,VALID,1000.33,VALID,0,VALID,59.4653,VALID,0,VALID,26.6079,VALID,180,VALID,4.37852,
2012-08-02, 03:15:04,VALID,1000.31,VALID,0,VALID,59.6331,VALID,0,VALID,26.6099,VALID,185,VALID,4.06055,
2012-08-02, 03:16:04,VALID,1000.34,VALID,0,VALID,59.923,VALID,0,VALID,26.5493,VALID,166,VALID,4.00469,
2012-08-02, 03:17:04,VALID,1000.36,VALID,0,VALID,60.1672,VALID,0,VALID,26.5318,VALID,159,VALID,3.40781,
2012-08-02, 03:18:04,VALID,1000.36,VALID,0,VALID,60.48,VALID,0,VALID,26.4517,VALID,154,VALID,2.30273,
2012-08-02, 03:19:04,VALID,1000.39,VALID,0,VALID,60.7547,VALID,0,VALID,26.354,VALID,164,VALID,2.32461,
2012-08-02, 03:20:04,VALID,1000.39,VALID,0,VALID,62.9901,VALID,0,VALID,26.2173,VALID,129,VALID,1.83828,
2012-08-02, 03:21:04,VALID,1000.41,VALID,0,VALID,64.7678,VALID,0,VALID,26.0045,VALID,119,VALID,1.33398,
2012-08-02, 03:22:04,VALID,1000.41,VALID,0,VALID,66.2404,VALID,0,VALID,25.7097,VALID,132,VALID,1.80703,
2012-08-02, 03:23:04,VALID,1000.43,VALID,0,VALID,67.0949,VALID,0,VALID,25.534,VALID,133,VALID,1.88633,
2012-08-02, 03:24:04,VALID,1000.43,VALID,0,VALID,67.835,VALID,0,VALID,25.4188,VALID,120,VALID,1.46445,
2012-08-02, 03:25:04,VALID,1000.43,VALID,0,VALID,68.9107,VALID,0,VALID,25.2821,VALID,120,VALID,1.70078,
2012-08-02, 03:26:04,VALID,1000.46,VALID,0,VALID,68.6208,VALID,0,VALID,25.1631,VALID,138,VALID,0.977344,
2012-08-02, 03:27:04,VALID,1000.45,VALID,0,VALID,68.0867,VALID,0,VALID,25.2236,VALID,127,VALID,1.2582,
2012-08-02, 03:28:04,VALID,1000.49,VALID,0,VALID,69.1778,VALID,0,VALID,25.2236,VALID,120,VALID,1.20156,
2012-08-02, 03:29:04,VALID,1000.51,VALID,0,VALID,69.4982,VALID,0,VALID,25.1241,VALID,153,VALID,1.19453,
2012-08-02, 03:30:04,VALID,1000.47,VALID,0,VALID,67.0796,VALID,0,VALID,25.1845,VALID,163,VALID,1.29414,
2012-08-02, 03:31:04,VALID,1000.46,VALID,0,VALID,66.7592,VALID,0,VALID,25.2802,VALID,126,VALID,1.51797,
2012-08-02, 03:32:04,VALID,1000.46,VALID,0,VALID,67.0033,VALID,0,VALID,25.3193,VALID,130,VALID,1.37422,
2012-08-02, 03:33:04,VALID,1000.46,VALID,0,VALID,66.6066,VALID,0,VALID,25.2412,VALID,146,VALID,1.62812,
2012-08-02, 03:34:04,VALID,1000.44,VALID,0,VALID,67.629,VALID,0,VALID,25.1826,VALID,151,VALID,1.63477,
2012-08-02, 03:35:04,VALID,1000.43,VALID,0,VALID,67.9112,VALID,0,VALID,25.1826,VALID,132,VALID,1.52148,
2012-08-02, 03:36:04,VALID,1000.43,VALID,0,VALID,67.7052,VALID,0,VALID,25.3407,VALID,128,VALID,2.57656,
2012-08-02, 03:37:04,VALID,1000.45,VALID,0,VALID,67.9952,VALID,0,VALID,25.3407,VALID,135,VALID,1.80742,
2012-08-02, 03:38:04,VALID,1000.42,VALID,0,VALID,68.3995,VALID,0,VALID,25.2412,VALID,133,VALID,1.76211,
2012-08-02, 03:39:04,VALID,1000.41,VALID,0,VALID,68.8192,VALID,0,VALID,25.1845,VALID,140,VALID,1.68711,
2012-08-02, 03:40:04,VALID,1000.34,VALID,0,VALID,65.5918,VALID,0,VALID,25.3017,VALID,181,VALID,3.25742,
2012-08-02, 03:41:04,VALID,1000.37,VALID,0,VALID,66.2556,VALID,0,VALID,25.573,VALID,131,VALID,2.20195,
2012-08-02, 03:42:04,VALID,1000.41,VALID,0,VALID,66.9041,VALID,0,VALID,25.573,VALID,135,VALID,1.83086,
2012-08-02, 03:43:04,VALID,1000.41,VALID,0,VALID,67.0033,VALID,0,VALID,25.5164,VALID,151,VALID,1.31133,
2012-08-02, 03:44:04,VALID,1000.39,VALID,0,VALID,67.8121,VALID,0,VALID,25.3778,VALID,121,VALID,1.54453,
2012-08-02, 03:45:04,VALID,1000.4,VALID,0,VALID,67.8884,VALID,0,VALID,25.3017,VALID,128,VALID,1.51914,
2012-08-02, 03:46:04,VALID,1000.4,VALID,0,VALID,67.6747,VALID,0,VALID,25.2626,VALID,164,VALID,1.82305,